{"data":{"norad_id":58244,"intl_designator":"2023-171Q","name":"STARLINK-30854","alt_names":[],"object_type":"PAYLOAD","status":"ACTIVE","operator":null,"country":"US","launch_date":"2023-11-08","launch_site_code":"AFETR","launch_vehicle":null,"mission":null,"orbit_class":"UNKNOWN","rcs_meters":null,"size_class":null,"mass_kg":null,"dimensions":null,"purposes":["comms"],"wikipedia_slug":null,"has_3d_model":false,"image_url":null,"decayed_at":null,"tle_current":{"epoch":"2026-09-20T20:53:33.184608Z","epoch_age_seconds":111635,"freshness":"FRESH","line1":"1 58244U 23171Q   26263.87052297  .00001024  00000+0  46754-4 0  9992","line2":"2 58244  43.0028 263.0586 0001432 259.1652 100.9038 15.27576034159581","mean_motion":15.27576034,"eccentricity":0.0001432,"inclination_deg":43.0028,"raan_deg":263.0586,"arg_perigee_deg":259.1652,"mean_anomaly_deg":100.9038,"bstar":4.6754e-5,"rev_number":15958,"period_min":94.266993455594,"perigee_km":482.07844814656,"apogee_km":484.04349524565,"semimajor_km":6861.1979716961,"source":"CELESTRAK","updated_at":"2026-09-21T09:00:33.838799Z"}}}